Weather observations for the past three days for
Venango Regional Airport
Imperial (Metric)
Date Time (edt) Wind (mph) Vis. (mi.) Weather Sky Cond. Temperature (ºF) Relative Humidity Wind Chill (°F) Heat Index (°F) Pressure Precipitation (in)
Air Dwpt 6 hour altimeter (in) sea level (mb) 1 hr 3 hr 6 hr
Max. Min.
15 09:56 Vrbl 3 10.00 Fair CLR 64 48.9 58% 30.18 1021.5
15 08:56 Vrbl 6 10.00 Fair CLR 61 50 67% 30.17 1021.3
15 07:56 N 5 10.00 Fair CLR 57 48.9 57 52 74% 30.15 1020.6
15 06:56 NE 3 10.00 Fair CLR 53.1 50 89% 30.13 1019.9
15 05:56 N 5 10.00 Fair CLR 52 48.9 89% 30.12 1019.7
15 04:56 N 3 10.00 Fair CLR 53.1 50 89% 30.1 1018.8
15 03:56 Vrbl 5 10.00 Fair CLR 54 51.1 90% 30.1 1018.7
15 02:56 Vrbl 3 10.00 Fair CLR 55 52 90% 30.08 1017.8
15 01:56 NW 5 10.00 Fair CLR 55.9 50 70 55.9 81% 30.06 1017.4
15 00:56 Vrbl 5 10.00 Fair CLR 57 50 78% 30.06 1017.4
14 23:56 NW 6 10.00 Fair CLR 59 48.9 69% 30.06 1017.3
14 22:56 NW 7 10.00 Fair CLR 61 48.9 65% 30.05 1017.1
14 21:56 Vrbl 5 10.00 Fair CLR 63 48.9 60% 30.03 1016.2
14 20:56 NW 7 10.00 Fair CLR 66 50 56% 30.01 1015.5
14 19:56 Vrbl 7 10.00 Fair CLR 70 50 79 70 49% 29.99 1014.8
14 18:56 NW 9 10.00 Fair CLR 73.9 48.9 41% 29.98 1014.5
14 17:56 NW 9 10.00 Fair CLR 75.9 51.1 42% 78 29.96 1013.5
14 16:56 NW 7 10.00 Fair CLR 78.1 48.9 36% 79 29.95 1013.0
14 15:56 W 6 10.00 Mostly Cloudy BKN060 BKN080 78.1 57 48% 79 29.94 1012.9
14 14:56 Calm 10.00 Mostly Cloudy BKN070 78.1 57.9 50% 79 29.95 1013.3
14 13:56 Calm 10.00 A Few Clouds FEW120 75 57 75.9 66 54% 78 29.97 1013.7 0.26
14 12:56 Vrbl 3 10.00 Partly Cloudy SCT070 73.9 63 69% 29.97 1014.0
14 11:56 NE 6 10.00 A Few Clouds FEW007 69.8 0 0% 29.97 1014.2 0.07
14 10:56 W 7 3.00 Thunderstorm Heavy Rain Fog/Mist FEW014 BKN023 OVC060 66.9 66.9 100% 29.98 1014.5 0.19 0.19
14 09:56 NE 7 10.00 Fair CLR 71.1 62.1 73% 29.93 1012.7
14 08:56 Calm 10.00 Fair CLR 72 61 68% 29.95 1013.1
14 07:56 SW 5 10.00 Mostly Cloudy BKN070 68 60.1 70 66 76% 29.95 1013.1
14 06:56 W 5 10.00 A Few Clouds FEW080 66.9 59 76% 29.94 1013.0
14 05:56 SW 7 10.00 Overcast BKN075 OVC090 68 57.9 70% 29.92 1012.2
14 04:56 SW 6 10.00 Partly Cloudy SCT070 66.9 57 71% 29.91 1011.8
14 03:56 SW 7 10.00 Partly Cloudy SCT080 69.1 57 66% 29.91 1011.8
14 02:56 SW 6 10.00 Fair CLR 68 57 68% 29.92 1012.1
14 01:56 SW 7 10.00 A Few Clouds FEW110 70 57 77 70 64% 29.92 1012.1
14 00:56 SW 7 10.00 Fair CLR 71.1 57 61% 29.93 1012.4
13 23:56 SW 7 10.00 A Few Clouds FEW120 72 57.9 61% 29.93 1012.3
13 22:56 SW 8 10.00 Fair CLR 71.1 57.9 63% 29.94 1012.9
13 21:56 SW 8 10.00 Fair CLR 73 57.9 59% 29.95 1013.3
13 20:56 SW 7 10.00 A Few Clouds FEW120 73.9 57.9 57% 29.95 1013.4
13 19:56 SW 9 10.00 Partly Cloudy SCT110 77 60.1 82 77 56% 79 29.95 1013.5
13 18:56 SW 7 10.00 Partly Cloudy SCT110 78.1 59 52% 79 29.95 1013.4
13 17:56 SW 10 10.00 Fair CLR 81 59 47% 81 29.95 1013.3
13 16:56 SW 14 G 18 10.00 A Few Clouds FEW120 81 59 47% 81 29.97 1014.1
13 15:56 SW 10 G 17 10.00 Fair CLR 82 57.9 44% 82 29.97 1014.2
13 14:56 S 12 10.00 Fair CLR 81 57.9 45% 81 29.97 1014.0
13 13:56 S 13 10.00 Fair CLR 80.1 57 80.1 62.1 45% 80 29.98 1014.4
13 12:56 SW 9 G 20 10.00 Fair CLR 79 57 47% 80 30 1015.2
13 11:56 SW 10 10.00 Fair CLR 77 55.9 48% 79 30.02 1015.8
13 10:56 SW 10 10.00 Fair CLR 75 57 54% 78 30.02 1016.0
13 09:56 SW 9 10.00 Fair CLR 72 57 59% 30.04 1016.5
13 08:56 SW 6 10.00 Fair CLR 66.9 55.9 68% 30.03 1016.4
13 07:56 S 8 10.00 Fair CLR 62.1 53.1 63 54 73% 30.03 1016.2
13 06:56 S 5 10.00 Fair CLR 57 54 90% 30.03 1016.3
13 05:56 SW 3 10.00 Fair CLR 59 50 72% 30.01 1015.8
13 04:56 SW 6 10.00 Fair CLR 57 51.1 81% 30.01 1015.8
13 03:56 S 9 10.00 Mostly Cloudy BKN100 59 51.1 75% 30.01 1015.5
13 02:56 S 8 10.00 Fair CLR 57.9 50 75% 30.01 1015.7
13 01:56 S 6 10.00 Fair CLR 60.1 50 72 60.1 70% 30.01 1015.8
13 00:56 SW 7 10.00 Fair CLR 62.1 51.1 67% 30.02 1016.0
12 23:56 SW 6 10.00 Fair CLR 63 50 63% 30.02 1016.0
12 22:56 S 5 10.00 Fair CLR 63 50 63% 30.02 1016.2
12 21:56 Calm 10.00 Fair CLR 64.9 48.9 56% 30.02 1016.1
12 20:56 S 3 10.00 Fair CLR 68 48.9 51% 30.02 1016.1
12 19:56 SW 3 10.00 Fair CLR 73 48 77 72 41% 30.02 1016.1
12 18:56 W 6 10.00 Fair CLR 75 46.9 37% 77 30.01 1015.9
12 17:56 SW 8 10.00 Fair CLR 75.9 48.9 39% 78 30.01 1016.1
12 16:56 SW 6 10.00 Fair CLR 75.9 46.9 36% 78 30.03 1016.6
12 15:56 W 6 10.00 A Few Clouds FEW065 75.9 48.9 39% 78 30.03 1016.8
12 14:56 SW 7 10.00 Fair CLR 73.9 50 43% 30.04 1017.0
12 13:56 W 9 10.00 Partly Cloudy SCT055 73.9 48.9 73.9 53.1 41% 30.06 1017.5
12 12:56 SW 9 10.00 A Few Clouds FEW049 72 50 46% 30.06 1017.7
12 11:56 Vrbl 7 10.00 Fair CLR 71.1 52 51% 30.07 1017.9
12 10:56 SW 10 10.00 A Few Clouds FEW095 69.1 52 55% 30.08 1018.4
Date Time (edt) Wind (mph) Vis. (mi.) Weather Sky Cond. Air Dwpt Max. Min. Relative Humidity Wind Chill (°F) Heat Index (°F) altimeter (in) sea level (mb) 1 hr 3 hr 6 hr
6 hour
Temperature (ºF) Pressure Precipitation (in)